Location: Stanford
(52.2833°N, 2.4333°W)
Time: 20:07:45
(UTC+00:00)

YAOGAN 6 - Pass Details

Date: 22 January 2021
Orbit: 465 x 502 km, 97.0° (Epoch: 27 February)

Event Time Altitude Azimuth Distance (km) Brightness Sun altitude
Rises 17:22:02 0° 180° (S) 2,527 6.5 -6.7°
Reaches altitude 10° 17:24:08 10° 186° (S) 1,660 5.7 -7.0°
Maximum altitude 17:27:35 47° 261° (W) 657 3.8 -7.5°
Drops below altitude 10° 17:31:08 10° 337° (NNW) 1,696 5.3 -8.0°
Sets 17:33:17 0° 343° (NNW) 2,590 6.2 -8.3°
